Weather History for EGXG - December, 2012

Change the Weather History Date:

Saturday, December 29, 2012

  Actual Average Record
Temperature  
Mean Temperature 47 °F -  
Max Temperature 54 °F - - ()
Min Temperature 40 °F - - ()
Degree Days  
Heating Degree Days 18    
Moisture  
Dew Point 43 °F    
Average Humidity 83    
Maximum Humidity 94    
Minimum Humidity 71    
Precipitation  
Precipitation 0.16 in - - ()
Sea Level Pressure  
Sea Level Pressure 29.40 in    
Wind  
Wind Speed 16 mph ()    
Max Wind Speed 30 mph    
Max Gust Speed 41 mph    
Visibility 6.6 miles    
Events Rain    
T = Trace of Precipitation, MM = Missing Value Source: Averaged Metar Reports

Daily Weather History Graph

Daily Weather History Graph

Search for Another Location

Airport or City:

Trip Planner

Search our weather history database for the weather conditions in past years. The results will help you decide how hot, cold, wet, or windy it might be!

Date:

Astronomy

Dec. 29, 2012 Rise Set
Actual Time 8:23 AM GMT 3:51 PM GMT
Civil Twilight 7:39 AM GMT 4:34 PM GMT
Nautical Twilight 6:53 AM GMT 5:20 PM GMT
Astronomical Twilight 6:10 AM GMT 6:03 PM GMT
Moon 5:25 PM GMT (12/29) 8:34 AM GMT (12/29)
Length of Visible Light 8h 54m
Length of Day
7h 28m
Full, 99% of the Moon is Illuminated
Dec 29
Full
Jan 5
Last Quarter
Jan 11
New
Jan 18
First Quarter
Jan 27
Full

Hourly Weather History & Observations

Time (GMT) Temp. Windchill Dew Point Humidity Pressure Visibility Wind Dir Wind Speed Gust Speed Precip Events Conditions
12:50 AM 55.4 °F - 48.2 °F 77% 29.53 in 6.2 mi SW 29.9 mph 41.4 mph N/A   Mostly Cloudy
1:50 AM 53.6 °F - 48.2 °F 82% 29.50 in 6.2 mi SSW 25.3 mph - N/A   Mostly Cloudy
2:50 AM 53 °F - 48 °F 78% 29.51 in 28 mi South 23.0 mph - -   Scattered Clouds
4:50 AM 51.8 °F - 50.0 °F 94% 29.44 in 6.2 mi South 23.0 mph - N/A   Mostly Cloudy
5:50 AM 54 °F - 48 °F 74% 29.43 in 25 mi South 20.7 mph - -  
5:50 AM 53.6 °F - 48.2 °F 82% 29.42 in 6.2 mi South 20.7 mph - N/A   Mostly Cloudy
6:50 AM 53.6 °F - 48.2 °F 82% 29.39 in 6.2 mi South 23.0 mph - N/A   Scattered Clouds
7:50 AM 53.6 °F - 48.2 °F 82% 29.36 in 6.2 mi South 25.3 mph - N/A   Mostly Cloudy
8:50 AM 54 °F - 47 °F 71% 29.37 in 28 mi SSW 27.6 mph - -   Overcast
8:50 AM 53.6 °F - 48.2 °F 82% 29.36 in 6.2 mi SSW 27.6 mph 39.1 mph N/A   Overcast
9:50 AM 50.0 °F - 46.4 °F 87% 29.36 in 4.3 mi WSW 17.3 mph - N/A Rain Rain Showers
10:50 AM 48.2 °F - 46.4 °F 93% 29.36 in 6.2 mi SW 8.1 mph - N/A Rain Rain
11:50 AM 47 °F - 45 °F 92% 29.36 in 9 mi SSW 6.9 mph - - Rain Rain
11:50 AM 46.4 °F 42.9 °F 44.6 °F 93% 29.36 in 6.2 mi SSW 6.9 mph - N/A Rain Rain
12:50 PM 46.4 °F 42.9 °F 44.6 °F 93% 29.33 in 6.2 mi SSW 6.9 mph - N/A Rain Light Rain
1:50 PM 48.2 °F - 44.6 °F 87% 29.33 in 6.2 mi SSW 8.1 mph - N/A Rain Rain
2:50 PM 47 °F - 44 °F 84% 29.35 in 34 mi SW 10.4 mph - - Rain Rain
2:50 PM 46.4 °F 41.5 °F 44.6 °F 93% 29.33 in 6.2 mi SW 10.4 mph - N/A   Mostly Cloudy
3:50 PM 46.4 °F 40.7 °F 41.0 °F 81% 29.33 in 6.2 mi SSW 12.7 mph - N/A   Mostly Cloudy
4:50 PM 46.4 °F 41.1 °F 41.0 °F 81% 29.36 in 6.2 mi SW 11.5 mph - N/A   Overcast
5:50 PM 46 °F - 40 °F 72% 29.39 in 22 mi WSW 15.0 mph - -   Mostly Cloudy
5:50 PM 46.4 °F 40.1 °F 39.2 °F 76% 29.39 in 6.2 mi WSW 15.0 mph - N/A   Mostly Cloudy
6:50 PM 44.6 °F 39.2 °F 39.2 °F 81% 29.39 in 6.2 mi WSW 10.4 mph - N/A   Partly Cloudy
7:50 PM 42.8 °F 38.0 °F 37.4 °F 81% 29.42 in 6.2 mi SW 8.1 mph - N/A   Unknown
8:50 PM 40 °F - 38 °F 88% 29.43 in 14 mi SE 6.9 mph - -  
8:50 PM 41.0 °F 36.4 °F 37.4 °F 87% 29.42 in 6.2 mi SE 6.9 mph - N/A   Unknown
9:50 PM 41.0 °F 36.4 °F 37.4 °F 87% 29.42 in 6.2 mi South 6.9 mph - N/A   Scattered Clouds
10:50 PM 41.0 °F 35.2 °F 37.4 °F 87% 29.42 in 6.2 mi South 9.2 mph - N/A   Mostly Cloudy
11:50 PM 42 °F - 37 °F 75% 29.44 in 40 mi SW 13.8 mph - - Rain Rain
11:50 PM 42.8 °F 35.8 °F 37.4 °F 81% 29.42 in 6.2 mi SW 13.8 mph - N/A   Mostly Cloudy